Weather History for KTMK - May, 2013

Change the Weather History Date:

Thursday, May 9, 2013

  Actual Average (KMMV) Record (KMMV)
Temperature  
Mean Temperature 56 °F 54 °F  
Max Temperature 62 °F 67 °F 89 °F (1987)
Min Temperature 50 °F 42 °F 29 °F (1908)
Degree Days  
Heating Degree Days 9 11  
Month to date heating degree days 104  
Since 1 July heating degree days 4502  
Cooling Degree Days 0 0  
Month to date cooling degree days 0  
Year to date cooling degree days 0  
Growing Degree Days 6 (Base 50)    
Moisture  
Dew Point 50 °F    
Average Humidity 77    
Maximum Humidity 94    
Minimum Humidity 63    
Precipitation  
Precipitation 0.00 in 0.07 in 0.61 in (2005)
Month to date precipitation 0.64  
Year to date precipitation 18.12  
Sea Level Pressure  
Sea Level Pressure 30.19 in    
Wind  
Wind Speed 2 mph (NW)    
Max Wind Speed 9 mph    
Max Gust Speed -    
Visibility 10 miles    
Events      
T = Trace of Precipitation, MM = Missing Value Source: NWS Daily Summary

Daily Weather History Graph

Daily Weather History Graph

Search for Another Location

Airport or City:

Trip Planner

Search our weather history database for the weather conditions in past years. The results will help you decide how hot, cold, wet, or windy it might be!

Date:

Astronomy

May. 09, 2013 Rise Set
Actual Time 6:51 AM MDT 9:32 PM MDT
Civil Twilight 6:18 AM MDT 10:06 PM MDT
Nautical Twilight 5:35 AM MDT 10:49 PM MDT
Astronomical Twilight 4:46 AM MDT 11:38 PM MDT
Moon 6:41 AM MDT (5/9) 9:32 PM MDT (5/9)
Length of Visible Light 15h 48m
Length of Day
14h 40m
Waning Crescent, 0% of the Moon is Illuminated
May 9
Waning Crescent
May 9
New
May 17
First Quarter
May 24
Full
May 31
Last Quarter

Hourly Weather History & Observations

Time (MDT) Temp. Dew Point Humidity Pressure Visibility Wind Dir Wind Speed Gust Speed Precip Events Conditions
12:15 AM 53.6 °F 48.2 °F 82% 30.20 in 10.0 mi Calm Calm - N/A   Overcast
1:35 AM 53.6 °F 48.2 °F 82% 30.21 in 10.0 mi Calm Calm - N/A   Overcast
2:15 AM 53.6 °F 50.0 °F 88% 30.21 in 10.0 mi Calm Calm - N/A   Overcast
2:35 AM 53.6 °F 50.0 °F 88% 30.21 in 10.0 mi Calm Calm - N/A   Overcast
3:35 AM 53.6 °F 50.0 °F 88% 30.21 in 10.0 mi Calm Calm - N/A   Overcast
3:55 AM 53.6 °F 50.0 °F 88% 30.21 in 10.0 mi Calm Calm - N/A   Overcast
5:35 AM 51.8 °F 48.2 °F 88% 30.21 in 10.0 mi Calm Calm - N/A   Overcast
5:55 AM 53.6 °F 48.2 °F 82% 30.21 in 10.0 mi NW 3.5 mph - N/A   Overcast
6:35 AM 53.6 °F 48.2 °F 82% 30.21 in 10.0 mi Calm Calm - N/A   Overcast
8:15 AM 51.8 °F 48.2 °F 88% 30.21 in 10.0 mi Calm Calm - N/A   Overcast
8:35 AM 53.6 °F 48.2 °F 82% 30.22 in 10.0 mi Calm Calm - N/A   Overcast
8:55 AM 53.6 °F 48.2 °F 82% 30.22 in 10.0 mi Calm Calm - N/A   Overcast
9:35 AM 53.6 °F 48.2 °F 82% 30.22 in 10.0 mi Calm Calm - N/A   Overcast
9:55 AM 53.6 °F 48.2 °F 82% 30.22 in 10.0 mi Calm Calm - N/A   Overcast
10:15 AM 53.6 °F 48.2 °F 82% 30.22 in 10.0 mi Calm Calm - N/A   Overcast
10:35 AM 53.6 °F 48.2 °F 82% 30.22 in 10.0 mi Calm Calm - N/A   Overcast
11:15 AM 55.4 °F 50.0 °F 82% 30.21 in 10.0 mi Calm Calm - N/A   Overcast
11:55 AM 57.2 °F 50.0 °F 77% 30.22 in 10.0 mi Calm Calm - N/A   Overcast
12:15 PM 59.0 °F 50.0 °F 72% 30.21 in 10.0 mi NW 3.5 mph - N/A   Scattered Clouds
12:35 PM 59.0 °F 50.0 °F 72% 30.21 in 10.0 mi Calm Calm - N/A   Clear
12:55 PM 62.6 °F 51.8 °F 68% 30.21 in 10.0 mi NW 4.6 mph - N/A   Clear
1:15 PM 62.6 °F 51.8 °F 68% 30.21 in 10.0 mi WNW 6.9 mph - N/A   Clear
1:35 PM 60.8 °F 51.8 °F 72% 30.21 in 10.0 mi NW 9.2 mph - N/A   Clear
2:15 PM 60.8 °F 50.0 °F 68% 30.22 in 10.0 mi NW 5.8 mph - N/A   Clear
2:35 PM 62.6 °F 51.8 °F 68% 30.21 in 10.0 mi NW 6.9 mph - N/A   Clear
2:55 PM 62.6 °F 51.8 °F 68% 30.21 in 10.0 mi NNW 4.6 mph - N/A   Clear
3:15 PM 60.8 °F 50.0 °F 68% 30.21 in 10.0 mi NW 6.9 mph - N/A   Clear
3:35 PM 62.6 °F 51.8 °F 68% 30.21 in 10.0 mi NNW 6.9 mph - N/A   Clear
3:55 PM 62.6 °F 50.0 °F 63% 30.20 in 10.0 mi Calm Calm - N/A   Clear
4:15 PM 62.6 °F 50.0 °F 63% 30.20 in 10.0 mi NW 6.9 mph - N/A   Clear
4:35 PM 62.6 °F 51.8 °F 68% 30.19 in 10.0 mi NNW 9.2 mph - N/A   Clear
4:55 PM 62.6 °F 50.0 °F 63% 30.19 in 10.0 mi NW 6.9 mph - N/A   Clear
5:15 PM 60.8 °F 50.0 °F 68% 30.18 in 10.0 mi NW 3.5 mph - N/A   Clear
5:35 PM 62.6 °F 50.0 °F 63% 30.18 in 10.0 mi NW 3.5 mph - N/A   Clear
5:55 PM 62.6 °F 50.0 °F 63% 30.17 in 10.0 mi Calm Calm - N/A   Clear
6:15 PM 60.8 °F 50.0 °F 68% 30.17 in 10.0 mi NW 8.1 mph - N/A   Clear
6:35 PM 60.8 °F 50.0 °F 68% 30.17 in 10.0 mi NW 9.2 mph - N/A   Clear
6:55 PM 60.8 °F 50.0 °F 68% 30.16 in 10.0 mi NNW 6.9 mph - N/A   Clear
7:15 PM 60.8 °F 50.0 °F 68% 30.16 in 10.0 mi NW 6.9 mph - N/A   Clear
7:35 PM 60.8 °F 50.0 °F 68% 30.16 in 10.0 mi NW 6.9 mph - N/A   Clear
7:55 PM 59.0 °F 50.0 °F 72% 30.15 in 10.0 mi NNW 9.2 mph - N/A   Clear
8:15 PM 59.0 °F 50.0 °F 72% 30.15 in 10.0 mi NW 5.8 mph - N/A   Clear
8:35 PM 59.0 °F 50.0 °F 72% 30.15 in 10.0 mi NNW 3.5 mph - N/A   Clear
8:55 PM 55.4 °F 50.0 °F 82% 30.16 in 10.0 mi NW 5.8 mph - N/A   Clear
9:15 PM 55.4 °F 50.0 °F 82% 30.16 in 10.0 mi West 4.6 mph - N/A   Clear
9:35 PM 53.6 °F 50.0 °F 88% 30.17 in 10.0 mi Calm Calm - N/A   Clear
9:55 PM 53.6 °F 50.0 °F 88% 30.17 in 10.0 mi Calm Calm - N/A   Clear
10:15 PM 53.6 °F 48.2 °F 82% 30.18 in 10.0 mi Calm Calm - N/A   Clear
10:35 PM 51.8 °F 48.2 °F 88% 30.19 in 10.0 mi Calm Calm - N/A   Clear
10:55 PM 51.8 °F 48.2 °F 88% 30.18 in 10.0 mi NE 4.6 mph - N/A   Clear
11:15 PM 51.8 °F 48.2 °F 88% 30.18 in 10.0 mi Calm Calm - N/A   Clear
11:35 PM 50.0 °F 48.2 °F 94% 30.18 in 10.0 mi Calm Calm - N/A   Clear
11:55 PM 50.0 °F 48.2 °F 94% 30.18 in 7.0 mi Calm Calm - N/A   Clear